GFSSGP_con_mucape_096.txt.gz
CAPE
0 0 0 0 0 0 0 0 0 0 0 0 0 0 0 0 7 163 140 226 233 405 466 595 961 1056 1077 1183 1023 973 974 494 87 19 40 11 22 18 25 12 30 30 4 5 13 9 14 7 0
0 0 0 0 0 0 0 0 0 0 0 0 0 0 0 0 0 38 125 269 449 241 190 426 684 989 1048 1252 1228 1067 906 538 36 25 19 10 16 25 94 16 53 23 13 12 7 5 9 8 3
0 0 0 0 0 0 0 0 0 0 0 0 0 0 0 0 14 57 92 211 195 108 188 386 660 891 890 1079 970 953 828 506 18 9 20 21 7 17 115 31 73 11 10 14 12 17 12 19 17
0 0 0 0 0 0 0 0 0 0 0 0 0 0 0 0 11 44 73 32 46 123 193 439 615 751 675 905 920 1008 893 438 0 1 9 19 0 3 18 112 48 6 14 16 20 18 14 17 22
0 0 0 0 0 0 0 0 0 0 0 0 0 0 0 0 11 29 37 218 229 41 105 314 548 592 692 799 918 1041 879 447 2 0 2 9 0 1 17 79 34 12 20 34 41 26 24 15 3
0 0 0 0 0 0 0 0 0 0 0 0 0 0 0 0 0 0 14 293 249 80 30 186 278 263 413 614 777 894 726 433 24 0 1 6 8 1 1 33 42 26 24 25 20 28 22 10 0
0 0 0 0 0 0 0 0 0 0 0 0 0 0 0 0 7 0 0 149 213 83 14 58 32 41 62 72 219 555 515 311 64 3 0 1 13 4 0 8 191 43 26 23 33 39 17 4 0
0 0 0 0 0 0 0 0 0 0 0 0 0 0 0 0 0 2 0 107 180 125 32 0 0 0 0 0 2 124 119 3 0 0 0 0 0 0 0 0 27 55 49 37 34 28 17 3 0
0 0 0 0 0 0 0 0 0 0 0 0 0 0 0 2 0 0 0 71 201 148 104 28 0 0 0 0 0 0 0 0 0 0 0 0 0 0 0 0 0 20 10 24 24 3 0 0 0
0 0 0 0 0 0 0 0 0 0 0 0 0 1 0 0 0 0 9 57 171 166 168 112 18 0 0 0 0 0 0 0 0 0 0 0 0 0 0 0 0 0 0 3 2 0 0 0 0
0 0 0 0 0 0 0 0 0 0 0 0 0 0 0 0 0 0 4 39 96 125 157 188 82 15 0 0 0 0 0 0 0 0 0 0 0 0 0 0 0 0 0 0 0 0 0 0 0
0 0 0 0 0 0 0 0 0 0 0 0 0 0 0 0 6 0 0 39 54 113 152 86 153 99 21 0 0 0 0 0 0 0 0 0 0 0 0 0 0 0 0 0 0 0 0 0 0
0 0 0 0 0 0 0 0 0 0 0 0 0 0 0 0 0 0 0 0 62 99 146 83 42 127 101 24 0 1 0 0 0 0 0 0 0 0 0 0 0 0 0 0 0 0 0 0 0
0 0 0 0 0 0 0 0 0 0 0 0 0 0 0 0 0 0 0 0 29 74 90 71 66 9 31 61 37 9 12 14 0 0 0 0 0 0 0 0 0 0 0 0 0 0 0 0 0
0 0 0 0 0 0 0 0 0 0 0 0 0 0 0 0 0 0 0 0 0 16 64 99 75 56 210 2 2 0 1 0 31 2 1 0 0 0 0 0 0 0 0 0 0 0 0 0 0
0 0 0 0 0 0 0 0 0 0 0 0 0 0 0 0 0 0 0 0 0 0 0 47 73 46 1 109 132 233 43 44 1 22 89 1 0 0 0 0 2 3 3 1 1 0 0 0 0
0 0 0 0 0 0 0 0 0 0 0 0 0 0 0 0 0 0 0 0 0 0 0 43 69 86 77 206 259 239 313 203 168 184 189 125 2 0 0 0 1 0 0 0 1 3 0 0 0
0 0 0 0 0 0 0 0 0 0 0 0 0 0 0 0 0 0 0 0 0 0 0 0 123 101 75 29 181 199 204 204 104 110 146 291 116 4 0 0 0 0 1 3 5 2 2 4 9
0 0 0 0 0 0 0 0 0 0 0 0 0 0 0 0 0 0 0 0 0 0 0 0 64 133 117 20 315 193 253 206 178 175 170 241 234 136 87 33 15 11 6 10 10 15 8 21 33
0 0 0 0 0 0 0 0 0 0 0 0 0 0 0 0 0 0 0 0 0 0 0 0 0 74 151 81 167 96 118 102 176 170 112 79 128 69 47 59 36 29 41 81 7 12 15 12 14
0 0 0 0 0 0 0 0 0 0 0 0 0 0 0 0 0 0 0 0 0 0 0 0 0 0 36 147 46 131 113 71 49 100 35 43 33 23 17 39 79 88 53 51 37 37 30 41 26
0 0 0 0 0 0 0 0 0 0 0 0 0 0 0 0 0 0 0 0 0 0 0 0 0 0 0 87 50 11 75 62 7 31 32 11 8 20 60 39 31 39 44 179 8 31 35 54 10
0 0 0 0 0 0 0 0 0 0 0 0 0 0 0 0 0 0 0 0 0 0 0 0 0 0 0 0 15 8 96 7 5 9 29 17 31 29 8 24 18 25 36 11 37 41 45 11 29
0 0 0 0 0 0 0 0 0 0 0 0 0 0 0 0 0 0 0 0 0 0 0 0 0 0 0 0 0 2 2 2 6 6 9 7 11 2 8 31 29 9 12 13 11 14 19 24 18
0 0 0 0 0 0 0 0 0 0 0 0 0 0 0 0 0 0 0 0 0 0 0 0 0 0 0 0 0 0 0 3 3 2 4 5 2 1 0 0 0 0 0 1 2 1 5 7 7
0 0 0 0 0 0 0 0 0 0 0 0 0 0 0 0 0 0 0 0 0 0 0 0 0 0 0 0 0 0 2 1 0 0 0 0 0 0 0 0 0 0 0 0 0 0 0 0 0
0 0 0 0 0 0 0 0 0 0 0 0 0 0 0 0 0 0 0 0 0 0 0 0 0 0 0 0 0 0 0 0 0 0 0 0 0 0 0 0 0 0 0 0 0 0 0 0 0
0 0 0 0 0 0 0 0 0 0 0 0 0 0 0 0 0 0 0 0 0 0 0 0 0 0 0 0 0 0 0 0 0 0 0 0 0 0 0 0 0 0 0 0 0 0 0 0 0
0 0 0 0 0 0 0 0 0 0 0 0 0 0 0 0 0 0 0 0 0 0 0 0 0 0 0 0 0 0 0 0 0 0 0 0 0 0 0 0 0 0 0 0 0 0 0 0 0
0 0 0 0 0 0 0 0 0 0 0 0 0 0 0 0 0 0 0 0 0 0 0 0 0 0 0 0 0 0 0 0 0 0 0 0 0 0 0 0 0 0 0 0 0 0 0 0 0

GFSSGP_con_mucape_102.txt.gz
CAPE
0 0 0 0 0 0 0 0 0 0 0 0 0 0 0 0 0 0 70 84 74 42 603 751 1086 1190 1053 944 954 662 498 387 63 74 77 28 16 18 15 3 21 14 9 18 13 16 35 68 55
0 0 0 0 0 0 0 0 0 0 0 0 0 0 0 0 2 61 59 94 200 298 391 604 884 1156 937 944 850 484 441 300 11 16 245 80 16 18 13 11 14 23 14 18 22 26 26 19 16
0 0 0 0 0 0 0 0 0 0 0 0 0 0 0 0 19 24 100 111 135 212 332 473 856 1090 891 934 786 537 455 445 249 33 288 58 17 6 11 14 18 30 17 19 19 24 20 15 10
0 0 0 0 0 0 0 0 0 0 0 0 0 0 0 0 1 40 28 28 70 122 284 529 770 973 906 885 566 286 126 260 76 24 47 49 39 5 2 23 22 29 7 10 15 4 0 5 0
0 0 0 0 0 0 0 0 0 0 0 0 0 0 0 0 11 23 32 34 38 66 260 379 585 841 906 830 523 271 42 78 44 8 11 33 49 18 13 16 19 33 16 9 1 0 0 0 0
0 0 0 0 0 0 0 0 0 0 0 0 0 0 0 0 11 6 20 5 10 37 125 195 280 466 604 686 506 331 78 44 48 4 1 0 11 57 18 12 7 8 6 13 0 0 0 0 0
0 0 0 0 0 0 0 0 0 0 0 0 0 0 0 13 1 0 0 0 1 29 33 62 101 176 344 381 230 162 59 30 59 12 0 0 0 29 116 35 16 0 0 10 0 0 0 0 0
0 0 0 0 0 0 0 0 0 0 0 0 0 0 4 30 0 0 0 0 0 5 0 5 8 0 111 144 33 0 0 0 0 0 0 0 0 0 0 0 10 11 10 9 0 0 0 0 0
0 0 0 0 0 0 0 0 0 0 0 0 0 0 0 24 26 6 16 0 0 0 0 0 0 0 0 67 0 0 0 0 0 0 0 0 0 0 0 0 0 10 10 2 0 0 0 0 0
0 0 0 0 0 0 0 0 0 0 0 0 0 0 0 7 62 39 48 30 0 0 0 0 0 0 0 26 0 0 0 0 0 0 0 0 0 0 0 0 0 0 0 0 0 0 0 0 0
0 0 0 0 0 0 0 0 0 0 0 0 0 0 0 0 38 70 39 34 0 0 0 0 0 0 0 0 0 0 0 0 0 0 0 0 0 0 0 0 0 0 0 0 0 0 0 0 0
0 0 0 0 0 0 0 0 0 0 0 0 0 0 0 0 2 59 24 2 14 0 0 0 0 0 0 0 0 0 0 0 0 0 0 0 0 0 0 0 0 0 0 0 0 0 0 0 0
0 0 0 0 0 0 0 0 0 0 0 0 0 0 0 0 0 27 40 21 30 13 0 0 0 0 0 0 0 0 0 0 0 0 0 0 0 0 0 0 0 0 0 0 0 0 0 0 0
0 0 0 0 0 0 0 0 0 0 0 0 0 0 0 0 0 0 9 48 42 24 0 0 0 0 0 0 0 0 0 0 0 0 0 0 0 0 0 0 0 0 0 0 0 0 0 0 0
0 0 0 0 0 0 0 0 0 0 0 0 0 0 0 0 0 0 0 0 41 19 3 0 0 0 0 0 0 0 0 0 0 0 0 0 0 0 0 0 0 0 0 0 0 0 0 0 0
0 0 0 0 0 0 0 0 0 0 0 0 0 0 0 0 0 0 0 0 0 12 2 17 4 1 0 0 0 0 0 0 1 2 3 2 0 0 0 0 0 0 0 0 0 0 0 0 0
0 0 0 0 0 0 0 0 0 0 0 0 0 0 0 0 0 0 0 0 0 0 0 11 20 24 27 0 0 3 5 6 13 9 10 7 3 1 0 0 0 0 0 0 1 1 0 6 2
0 0 0 0 0 0 0 0 0 0 0 0 0 0 0 0 0 0 0 0 0 0 0 16 12 0 1 9 12 4 14 78 12 8 10 11 13 5 3 0 6 3 8 10 4 1 4 9 21
0 0 0 0 0 0 0 0 0 0 0 0 0 0 0 0 0 0 0 0 0 0 0 16 0 0 0 0 0 8 31 28 73 10 17 12 11 9 12 24 28 40 29 25 11 22 27 44 47
0 0 0 0 0 0 0 0 0 0 0 0 0 0 0 0 0 0 0 0 0 0 0 0 7 0 1 0 0 0 8 7 8 15 7 14 12 31 21 25 54 59 54 47 51 32 36 22 26
0 0 0 0 0 0 0 0 0 0 0 0 0 0 0 0 0 0 0 0 0 0 0 0 0 0 31 12 20 140 5 27 11 10 10 28 55 40 52 57 55 64 61 21 20 39 16 28 25
0 0 0 0 0 0 0 0 0 0 0 0 0 0 0 0 0 0 0 0 0 0 0 0 0 3 51 55 49 91 12 22 6 14 37 44 33 34 13 37 44 52 55 59 50 47 8 11 12
0 0 0 0 0 0 0 0 0 0 0 0 0 0 0 0 0 0 0 0 0 0 0 0 0 0 46 117 46 55 8 3 10 11 9 8 22 42 39 40 46 17 31 32 8 4 17 16 4
0 0 0 0 0 0 0 0 0 0 0 0 0 0 0 0 0 0 0 0 0 0 0 0 0 0 0 83 112 11 13 4 6 7 7 20 29 20 20 5 3 7 1 1 0 0 0 0 0
0 0 0 0 0 0 0 0 0 0 0 0 0 0 0 0 0 0 0 0 0 0 0 0 0 0 0 1 92 13 9 4 5 6 7 4 4 3 2 0 0 0 0 0 0 0 0 0 0
0 0 0 0 0 0 0 0 0 0 0 0 0 0 0 0 0 0 0 0 0 0 0 0 0 0 0 17 9 2 3 1 1 5 6 1 0 0 0 0 0 0 0 0 0 0 0 0 0
0 0 0 0 0 0 0 0 0 0 0 0 0 0 0 0 0 0 0 0 0 0 0 0 0 0 0 0 0 0 2 2 1 1 0 0 0 0 0 0 0 0 0 0 0 0 0 0 0
0 0 0 0 0 0 0 0 0 0 0 0 0 0 0 0 0 0 0 0 0 0 0 0 0 0 0 0 0 1 1 0 0 0 0 0 0 0 0 0 0 0 0 0 0 0 0 0 0
0 0 0 0 0 0 0 0 0 0 0 0 0 0 0 0 0 0 0 0 0 0 0 0 0 0 0 0 0 0 0 0 0 0 0 0 0 0 0 0 0 0 0 0 0 0 0 0 0
0 0 0 0 0 0 0 0 0 0 0 0 0 0 0 0 0 0 0 0 0 0 0 0 0 0 0 0 0 0 0 0 0 0 0 0 0 0 0 0 0 0 0 0 0 0 0 0 0

GFSSGP_con_mucape_105.txt.gz
CAPE
0 0 0 0 0 0 0 0 0 0 0 0 0 0 0 0 0 0 36 40 178 234 320 620 914 1031 814 627 549 504 436 172 143 45 17 22 27 22 6 0 30 22 31 16 16 52 33 18 30
0 0 0 0 0 0 0 0 0 0 0 0 0 0 0 0 2 37 39 25 104 347 500 635 876 1048 822 669 611 479 281 278 283 252 30 20 10 12 9 10 16 11 11 15 10 30 17 11 18
0 0 0 0 0 0 0 0 0 0 0 0 0 0 0 0 1 11 41 56 126 256 345 540 774 991 795 497 465 524 373 329 396 297 34 9 12 13 9 14 12 18 9 13 17 27 8 1 20
0 0 0 0 0 0 0 0 0 0 0 0 0 0 0 7 0 6 47 56 68 159 256 586 804 920 717 530 320 377 402 338 212 233 90 14 5 18 14 22 19 29 14 11 22 15 0 0 13
0 0 0 0 0 0 0 0 0 0 0 0 0 0 0 0 3 13 24 20 30 126 279 433 674 774 739 456 119 218 306 86 43 70 120 8 0 19 15 22 21 8 10 11 4 8 0 0 0
0 0 0 0 0 0 0 0 0 0 0 0 0 0 0 10 7 3 19 2 7 87 124 242 513 532 502 399 249 197 239 55 22 13 26 37 15 19 11 2 1 12 9 1 0 0 0 0 0
0 0 0 0 0 0 0 0 0 0 0 0 0 0 0 22 10 2 24 0 0 41 59 81 261 338 280 132 68 56 101 76 43 10 0 4 102 72 34 20 4 9 3 0 0 0 0 0 0
0 0 0 0 0 0 0 0 0 0 0 0 0 0 1 28 0 0 0 0 0 0 0 0 143 244 155 38 0 0 0 3 0 0 0 0 0 0 0 0 10 0 0 0 0 0 0 0 0
0 0 0 0 0 0 0 0 0 0 0 0 0 0 0 32 9 0 0 1 1 0 0 0 0 116 80 0 0 0 0 0 0 0 0 0 0 0 0 0 2 3 0 0 0 0 0 0 0
0 0 0 0 0 0 0 0 0 0 0 0 0 0 6 24 9 0 0 0 1 0 0 0 0 7 59 0 0 0 0 0 0 0 0 0 0 0 0 0 0 0 0 0 0 0 0 0 0
0 0 0 0 0 0 0 0 0 0 0 0 0 0 17 28 13 0 6 0 0 0 0 0 0 0 1 0 0 0 0 0 0 0 0 0 0 0 0 0 0 0 0 0 0 0 0 0 0
0 0 0 0 0 0 0 0 0 0 0 0 0 0 6 28 19 11 21 0 0 0 0 0 0 0 0 0 0 0 0 0 0 0 0 0 0 0 0 0 0 0 0 0 0 0 0 0 0
0 0 0 0 0 0 0 0 0 0 0 0 0 0 3 6 24 32 52 5 0 0 0 0 0 0 0 0 0 0 0 0 0 0 0 0 0 0 0 0 0 0 0 0 0 0 0 0 0
0 0 0 0 0 0 0 0 0 0 0 0 0 0 0 0 6 31 48 34 0 0 0 0 0 0 0 0 0 0 0 0 0 0 0 0 0 0 0 0 0 0 0 0 0 0 0 0 0
0 0 0 0 0 0 0 0 0 0 0 0 0 0 0 0 0 12 17 26 29 4 0 0 0 0 0 0 0 0 0 0 0 0 0 0 0 0 0 0 0 0 0 0 0 0 0 0 0
0 0 0 0 0 0 0 0 0 0 0 0 0 0 0 0 0 0 0 13 18 34 17 0 0 0 0 0 0 0 0 0 0 1 0 2 1 0 0 0 0 0 0 0 0 0 0 0 0
0 0 0 0 0 0 0 0 0 0 0 0 0 0 0 0 0 0 0 0 7 26 29 13 0 0 0 0 0 0 0 1 4 5 7 7 5 2 0 0 0 0 0 4 5 4 0 1 6
0 0 0 0 0 0 0 0 0 0 0 0 0 0 0 0 0 0 0 0 0 0 4 15 11 14 16 0 0 0 9 6 7 10 11 10 7 3 12 3 10 12 13 13 5 12 8 11 34
0 0 0 0 0 0 0 0 0 0 0 0 0 0 0 0 0 0 0 0 0 0 0 0 27 24 28 0 2 9 8 9 6 7 17 8 9 7 6 12 25 35 39 54 45 38 44 37 37
0 0 0 0 0 0 0 0 0 0 0 0 0 0 0 0 0 0 0 0 0 0 0 0 0 17 44 28 14 18 2 8 21 12 11 15 10 28 22 48 53 58 65 73 72 51 55 24 33
0 0 0 0 0 0 0 0 0 0 0 0 0 0 0 0 0 0 0 0 0 0 0 0 0 1 21 0 0 9 16 6 7 21 9 11 18 41 56 60 56 56 63 67 40 9 24 20 5
0 0 0 0 0 0 0 0 0 0 0 0 0 0 0 0 0 0 0 0 0 0 0 0 0 0 0 0 0 14 18 7 10 27 31 38 65 48 28 20 31 40 53 58 58 42 19 8 15
0 0 0 0 0 0 0 0 0 0 0 0 0 0 0 0 0 0 0 0 0 0 0 0 0 0 0 0 1 20 138 9 13 15 35 46 27 17 24 29 34 40 40 25 19 5 2 0 1
0 0 0 0 0 0 0 0 0 0 0 0 0 0 0 0 0 0 0 0 0 0 0 0 0 0 0 0 3 12 83 11 7 7 20 8 10 9 8 27 31 20 3 4 0 0 0 0 0
0 0 0 0 0 0 0 0 0 0 0 0 0 0 0 0 0 0 0 0 0 0 0 0 0 0 0 0 39 89 10 12 12 5 13 8 10 8 5 1 1 0 0 0 0 0 0 0 0
0 0 0 0 0 0 0 0 0 0 0 0 0 0 0 0 0 0 0 0 0 0 0 0 0 0 0 2 22 147 124 13 8 8 7 7 8 4 0 0 0 0 0 0 0 0 0 0 0
0 0 0 0 0 0 0 0 0 0 0 0 0 0 0 0 0 0 0 0 0 0 0 0 0 0 0 2 2 92 79 7 3 4 3 2 0 0 0 0 0 0 0 0 0 0 0 0 0
0 0 0 0 0 0 0 0 0 0 0 0 0 0 0 0 0 0 0 0 0 0 0 0 0 0 0 4 7 124 11 5 1 1 1 0 0 0 0 0 0 0 0 0 0 0 0 0 0
0 0 0 0 0 0 0 0 0 0 0 0 0 0 0 0 0 0 0 0 0 0 0 0 0 0 0 12 27 24 10 10 1 0 0 0 0 0 0 0 0 0 0 0 0 0 0 0 0
0 0 0 0 0 0 0 0 0 0 0 0 0 0 0 0 0 0 0 0 0 0 0 0 0 1 4 7 11 12 10 1 0 0 0 0 0 0 0 0 0 0 0 0 0 0 0 0 0

GFSSGP_con_mucape_111.txt.gz
CAPE
0 0 0 0 0 0 0 0 0 0 0 0 0 0 0 0 0 0 0 30 196 276 409 670 684 614 448 508 502 422 386 109 44 26 154 26 10 9 11 42 100 246 28 23 20 32 22 21 22
0 0 0 0 0 0 0 0 0 0 0 0 0 0 0 0 17 58 8 113 172 288 443 522 579 565 460 483 433 516 551 275 68 21 25 13 9 12 15 26 48 61 30 24 16 34 23 7 1
0 0 0 0 0 0 0 0 0 0 0 0 0 0 0 0 48 3 0 120 181 218 355 437 513 530 465 416 570 577 532 261 42 16 9 13 8 13 14 22 30 33 39 25 10 27 9 2 1
0 0 0 0 0 0 0 0 0 0 0 0 0 0 0 0 0 0 32 101 136 179 321 395 430 429 351 401 442 532 517 297 19 11 14 12 11 14 16 13 20 43 17 5 22 19 3 1 0
0 0 0 0 0 0 0 0 0 0 0 0 0 0 0 0 0 0 36 48 85 131 237 341 312 313 375 363 373 440 464 283 31 21 18 11 7 17 22 15 14 27 6 16 3 3 0 0 0
0 0 0 0 0 0 0 0 0 0 0 0 0 0 0 0 2 2 23 9 39 85 149 235 120 69 177 282 261 282 256 217 72 9 26 18 30 27 11 15 15 10 6 13 1 0 0 0 0
6 0 0 0 0 0 0 0 0 0 0 0 0 0 0 124 0 1 0 2 25 34 86 96 63 0 0 28 50 70 104 95 55 32 34 54 41 32 30 30 14 13 10 3 1 0 0 0 0
19 0 0 0 0 0 0 0 0 0 0 0 0 0 0 3 0 0 2 5 92 1 1 39 22 0 0 0 0 0 6 0 0 0 0 0 0 0 0 1 11 1 0 0 0 0 0 0 0
12 0 0 0 0 0 0 0 0 0 0 0 0 0 0 1 0 1 14 8 25 1 20 60 18 0 0 0 0 0 0 0 0 0 0 0 0 0 0 0 0 0 0 0 0 0 0 0 0
8 0 0 0 0 0 0 0 0 0 0 0 0 0 0 0 0 0 7 4 5 5 13 99 46 0 0 0 0 0 0 0 0 0 0 0 0 0 0 0 0 0 0 0 0 0 0 0 0
4 12 0 0 0 0 0 0 0 0 0 0 0 0 0 0 0 0 0 0 0 1 2 6 93 3 1 0 0 0 0 0 0 0 0 0 0 0 0 0 0 0 0 0 0 0 0 0 0
2 1 0 0 0 0 0 0 0 0 0 0 0 0 3 2 34 0 0 0 0 1 2 7 5 2 1 0 0 0 0 0 0 0 0 0 0 0 0 0 0 0 0 0 0 0 0 0 0
15 28 0 0 0 0 0 0 0 0 0 0 0 1 0 0 2 0 0 0 0 0 1 0 3 3 1 0 0 0 0 0 0 0 0 0 0 0 0 0 0 0 0 0 0 0 0 0 0
6 16 11 2 0 0 0 0 0 0 0 0 0 0 0 0 2 0 0 0 0 0 0 0 0 1 2 3 0 0 0 0 0 0 0 0 0 0 0 0 0 0 0 0 0 0 0 0 0
2 0 0 0 0 0 0 0 0 0 0 0 0 0 0 2 0 9 0 0 0 0 0 0 0 0 0 0 0 0 0 0 0 0 0 0 0 0 0 0 0 0 0 0 0 0 0 0 0
0 0 0 0 0 0 0 0 0 0 0 0 0 0 0 0 0 0 0 0 0 0 0 0 0 0 0 0 0 0 0 0 0 0 0 0 0 0 0 0 0 0 0 0 0 0 0 0 0
0 0 0 0 0 0 0 0 0 0 0 0 0 0 0 0 0 0 0 0 7 3 0 0 0 0 0 0 0 0 0 0 0 0 0 1 4 1 3 0 0 0 2 5 8 7 7 7 12
0 0 0 0 0 0 0 0 0 0 0 0 0 0 0 0 0 0 0 0 10 24 0 0 0 0 0 0 0 0 0 0 0 4 5 9 9 9 4 0 3 12 15 20 2 31 36 29 7
0 0 6 0 0 0 0 0 0 0 0 0 0 0 0 0 0 0 0 0 0 0 2 0 0 0 0 0 0 0 0 0 6 4 9 9 18 8 10 7 5 23 20 34 43 51 44 26 2
0 0 2 0 0 0 0 0 0 0 0 0 0 0 0 0 0 0 0 0 0 0 11 18 3 0 0 0 0 0 0 0 10 17 15 31 12 18 22 15 21 38 54 59 63 60 46 14 1
0 0 1 0 0 0 0 0 0 0 0 0 0 0 0 0 0 0 0 0 0 0 0 0 8 6 3 14 5 11 18 22 16 19 31 33 36 26 33 43 46 49 68 66 79 51 43 26 5
3 0 0 2 0 0 0 0 0 0 0 0 0 0 0 0 0 0 0 0 0 0 0 0 0 0 0 3 18 11 33 31 16 9 21 7 41 42 43 44 58 68 56 48 51 37 41 30 13
3 0 0 2 0 0 0 0 0 0 0 0 0 0 0 0 0 0 0 0 0 0 0 0 0 0 0 0 0 0 33 63 85 43 35 18 13 40 51 63 65 61 26 27 26 25 4 8 0
4 0 0 0 0 0 0 0 0 0 0 0 0 0 0 0 0 0 0 0 0 0 0 0 0 0 0 0 0 0 0 39 105 116 30 7 22 37 52 56 66 27 12 14 8 2 1 0 0
2 0 0 0 0 0 0 0 0 0 0 0 0 0 0 0 0 0 0 0 0 0 0 0 0 0 0 0 0 0 0 25 107 135 41 6 14 6 44 51 13 4 3 2 3 0 0 0 0
0 0 0 0 0 0 0 0 0 0 0 0 0 0 0 0 0 0 0 0 0 0 0 0 0 0 0 0 1 1 5 31 90 142 42 11 7 9 20 6 6 7 3 1 0 0 0 0 0
0 0 0 0 0 0 0 0 0 0 0 0 0 0 0 0 0 0 0 0 0 0 0 0 0 0 0 0 0 8 129 33 64 109 128 12 9 7 11 4 3 1 0 1 0 0 0 0 0
0 0 0 0 0 0 0 0 0 0 0 0 0 0 0 0 0 0 0 0 0 0 0 0 0 0 0 0 0 0 1 4 10 25 160 84 30 16 8 8 1 0 0 0 0 0 0 0 0
0 0 0 0 0 0 0 0 0 0 0 0 0 0 0 0 0 0 0 0 0 0 0 0 0 0 0 0 0 0 3 3 11 55 109 157 48 9 2 1 1 0 0 0 0 0 0 0 0
0 0 0 0 0 0 0 0 0 0 0 0 0 0 0 0 0 0 0 0 0 0 0 0 0 0 0 0 0 0 1 1 3 15 33 31 44 26 0 0 1 0 0 0 0 0 0 0 0

GFSSGP_con_mucape_114.txt.gz
CAPE
0 0 0 0 0 0 0 0 0 0 0 0 0 0 0 0 0 13 65 81 178 262 378 550 665 635 412 492 461 429 457 334 355 243 118 18 20 19 44 75 202 78 35 27 18 16 9 7 6
0 0 0 0 0 0 0 0 0 0 0 0 0 0 0 13 0 36 73 97 159 244 316 433 432 528 329 450 512 437 336 229 40 12 18 12 21 15 86 123 75 33 36 25 23 13 6 2 0
0 0 0 0 0 0 0 0 0 0 0 0 0 0 0 0 1 40 81 137 218 239 288 341 417 439 317 399 615 526 393 135 66 13 12 13 14 18 36 44 49 34 34 23 15 15 4 0 0
0 0 0 0 0 0 0 0 0 0 0 0 0 0 0 0 2 37 82 133 191 170 262 209 444 428 258 430 662 434 217 74 44 25 16 9 12 14 29 52 31 21 17 17 17 9 2 0 0
0 0 0 0 0 0 0 0 0 0 0 0 0 0 1 12 13 35 89 143 151 197 302 211 324 349 380 378 563 473 171 52 80 31 19 20 17 18 9 26 34 25 16 14 6 2 1 0 0
0 0 0 0 0 0 0 0 0 0 0 0 0 0 3 8 4 14 70 104 92 138 218 182 115 137 236 396 408 378 147 66 74 55 45 32 21 20 17 28 32 20 13 3 1 0 0 0 0
0 0 0 0 0 0 0 0 0 0 0 0 0 0 2 7 7 16 26 44 26 112 248 234 21 14 22 25 53 104 125 75 60 45 34 40 45 44 33 28 16 7 7 2 0 0 0 0 0
0 0 0 0 0 0 0 0 0 0 0 0 0 0 1 7 6 15 10 12 8 83 195 193 10 2 12 17 0 17 7 6 11 12 0 0 0 10 10 3 14 6 0 0 0 0 0 0 0
0 0 0 0 0 0 0 0 0 0 0 0 0 0 0 1 3 12 5 0 8 28 81 159 14 1 5 14 2 0 0 0 0 0 0 0 4 7 6 0 8 1 0 0 0 0 0 0 0
0 0 0 0 0 0 0 0 0 0 0 0 0 0 5 2 0 4 0 4 4 5 56 132 49 1 0 2 7 5 0 0 5 7 3 4 4 3 0 0 0 0 0 0 0 0 0 0 0
0 0 0 0 0 0 0 0 0 0 0 0 0 0 38 12 10 0 2 1 0 6 12 54 53 7 0 0 1 2 0 0 0 2 1 0 0 0 0 0 0 0 0 0 0 0 0 0 0
22 1 0 0 0 0 0 0 0 0 0 0 0 0 21 108 1 5 1 1 0 1 6 6 33 9 3 0 0 0 0 0 0 0 0 0 0 0 0 0 0 0 0 0 0 0 0 0 0
11 0 2 0 3 0 0 0 0 0 0 0 0 0 1 88 2 1 0 0 0 0 4 3 1 3 8 4 0 0 0 0 0 0 0 0 0 0 0 0 0 0 0 0 0 0 0 0 0
0 0 5 2 1 1 0 0 0 0 0 0 0 0 0 2 2 1 2 0 0 0 3 5 4 3 2 3 8 0 0 0 0 0 0 0 0 0 0 0 0 0 0 0 0 0 0 0 0
2 1 2 14 5 2 0 0 0 0 0 0 0 0 0 0 6 0 0 0 0 0 0 2 9 10 3 1 0 0 0 0 0 0 0 0 0 0 0 0 0 0 0 0 0 0 0 0 0
0 2 3 0 0 2 0 0 0 0 0 0 0 0 0 0 1 1 0 0 0 0 0 0 0 2 7 8 8 0 0 0 0 0 0 0 0 0 0 0 0 0 0 0 2 4 8 3 7
0 3 0 0 0 0 1 0 0 0 0 0 0 0 0 0 2 2 0 0 0 0 0 0 0 0 0 0 0 1 1 0 0 1 3 0 1 2 1 2 0 0 1 5 6 9 10 19 33
0 0 0 0 0 0 0 0 0 0 0 0 0 0 0 0 0 0 0 5 0 0 0 0 0 0 0 0 0 0 0 0 0 1 4 18 9 5 1 18 17 8 9 10 11 5 25 26 24
6 0 0 0 0 0 0 0 0 0 0 0 0 0 0 0 0 0 0 0 0 10 0 0 0 0 0 0 0 2 1 0 0 0 5 10 8 10 7 4 11 11 26 27 25 32 37 26 10
8 3 0 0 0 0 0 0 0 0 0 0 0 0 0 0 0 0 0 0 6 30 37 16 0 0 0 0 0 0 0 1 0 4 13 21 7 15 6 7 10 21 21 29 42 54 53 30 16
2 0 0 0 0 0 0 0 0 0 0 0 0 0 0 0 0 0 0 0 0 7 34 44 48 26 0 0 0 0 6 4 15 19 23 21 23 17 23 24 36 25 32 53 64 67 51 30 11
2 0 0 0 0 0 0 0 0 0 0 0 0 0 0 0 0 0 0 0 0 0 0 14 42 44 22 0 0 0 0 3 0 16 25 39 40 30 48 37 34 61 73 58 65 60 39 27 16
5 5 0 0 0 0 0 0 0 0 0 0 0 0 0 0 0 0 0 0 0 0 0 0 0 27 45 21 13 17 22 60 81 60 45 37 26 31 31 41 40 52 67 73 46 33 23 24 19
11 1 9 4 0 0 0 0 0 0 0 0 0 0 0 0 0 0 0 0 0 0 0 0 0 0 14 25 23 53 62 81 97 76 51 27 9 13 13 30 46 63 68 56 23 6 7 12 1
5 0 0 0 0 0 0 0 0 0 0 0 0 0 0 0 0 0 0 0 0 0 0 0 0 0 0 3 9 46 59 62 89 102 31 90 24 3 15 24 42 59 59 24 5 4 2 1 0
0 0 0 0 0 0 0 0 0 0 0 0 0 0 0 0 0 0 0 0 0 0 0 0 0 0 0 0 0 10 20 33 121 139 25 62 70 8 15 18 29 43 23 9 6 5 0 0 0
0 0 0 0 0 0 0 0 0 0 0 0 0 0 0 0 0 0 0 0 0 0 0 0 0 0 0 0 0 3 1 1 58 31 2 105 187 56 17 9 19 9 0 6 3 3 1 0 0
0 0 0 0 0 0 0 0 0 0 0 0 0 0 0 0 0 0 0 0 0 0 0 0 0 0 0 0 0 2 2 2 4 16 16 98 201 173 38 24 7 5 1 4 0 1 0 0 0
0 0 0 0 0 0 0 0 0 0 0 0 0 0 0 0 0 0 0 0 0 0 0 0 0 0 0 0 0 0 4 4 6 56 122 45 137 217 112 34 14 0 0 0 1 0 0 0 0
0 0 0 0 0 0 0 0 0 0 0 0 0 0 0 0 0 0 0 0 0 0 0 0 0 0 0 0 0 0 0 0 1 4 1 3 17 213 61 20 0 0 0 0 0 0 0 0 0

GFSSGP_con_mucape_117.txt.gz
CAPE
0 0 0 0 0 0 0 0 0 0 0 0 0 0 12 33 27 117 80 132 195 267 333 400 724 546 306 272 253 398 616 557 472 228 39 55 80 168 17 109 288 56 22 10 17 14 12 9 4
0 0 0 0 0 0 0 0 0 0 0 0 0 0 0 56 22 36 60 111 147 200 208 192 422 511 424 368 447 472 384 281 116 44 23 9 88 163 31 33 70 92 20 18 14 5 2 0 0
0 0 0 0 0 0 0 0 0 0 0 0 0 0 0 36 0 34 45 78 97 134 397 181 354 377 264 354 546 400 346 125 104 23 10 12 65 131 37 32 42 45 23 15 15 5 2 0 0
0 0 0 0 0 0 0 0 0 0 0 0 0 0 0 3 0 36 52 62 104 132 238 109 354 357 302 453 488 317 178 134 46 11 9 9 15 36 41 34 26 42 24 9 17 6 1 0 0
0 0 0 0 0 0 0 0 0 0 0 0 0 0 0 4 4 6 43 69 29 92 149 49 232 326 417 561 282 180 117 45 75 18 23 20 16 27 33 42 27 23 7 15 8 3 0 0 0
0 0 0 0 0 0 0 0 0 0 0 0 0 0 4 15 6 9 35 12 64 121 139 40 75 98 260 331 299 133 70 39 22 23 47 17 14 16 32 32 22 13 10 4 1 1 0 0 0
0 0 0 0 0 0 0 0 0 0 0 0 0 0 1 9 5 5 98 27 133 90 138 34 1 5 50 21 40 49 62 51 55 72 60 42 31 34 36 40 20 9 2 0 0 0 0 0 0
0 0 0 0 0 0 0 0 0 0 0 0 0 0 0 6 139 17 9 13 25 29 87 11 6 9 6 13 0 6 13 37 35 15 0 1 11 11 9 4 11 1 0 0 0 0 0 0 0
2 0 0 0 0 0 0 0 0 0 0 0 0 0 0 5 17 11 6 9 3 24 86 7 4 8 8 4 0 0 0 2 0 0 0 2 6 9 12 0 3 0 0 0 0 0 0 0 0
2 0 0 0 0 0 0 0 0 0 0 0 0 0 1 5 7 7 7 10 6 6 44 37 2 1 2 0 0 5 0 10 20 7 9 5 5 4 1 0 0 0 0 0 0 0 0 0 0
20 0 0 0 0 0 0 0 0 0 0 0 0 0 3 10 9 6 0 0 0 2 31 80 14 0 0 0 1 0 0 1 16 15 9 5 0 0 0 0 0 0 0 0 0 0 0 0 0
4 0 0 0 0 0 0 0 0 0 0 0 0 0 1 3 1 0 0 0 0 1 12 89 38 2 0 0 0 0 0 0 0 4 1 0 0 0 0 0 0 0 0 0 0 0 0 0 0
0 2 0 1 0 0 0 0 0 0 0 0 0 0 2 2 1 1 0 0 0 0 3 10 100 12 2 0 0 0 0 0 0 0 0 0 0 0 0 0 0 0 0 0 0 0 0 0 0
16 15 7 0 4 1 0 0 0 0 0 0 0 0 0 0 0 1 0 0 0 0 0 2 19 38 4 1 0 0 0 0 0 0 0 0 0 0 0 0 1 0 0 0 0 0 0 0 0
12 59 40 1 1 0 1 0 0 0 0 0 0 0 0 0 0 48 0 0 0 0 0 4 1 5 7 5 1 0 0 0 0 0 0 0 0 0 0 3 2 2 0 0 0 0 0 3 1
15 14 7 0 2 3 2 0 0 0 0 0 0 0 0 0 0 15 0 0 0 0 0 0 1 4 2 9 1 0 0 0 0 0 2 0 0 0 0 3 2 0 0 3 9 11 13 12 16
3 13 5 0 1 1 1 0 0 0 0 0 0 0 0 0 0 0 5 0 0 0 0 0 0 0 1 2 0 1 0 0 0 0 0 1 0 0 0 3 6 0 0 10 6 12 13 29 54
1 3 0 0 0 0 0 0 1 0 0 0 0 0 0 0 0 0 4 11 0 0 0 0 0 0 0 0 0 0 1 0 0 0 4 10 5 0 0 13 24 13 4 7 5 13 24 44 35
4 0 0 0 0 0 0 0 0 0 0 0 0 0 0 0 0 0 0 0 0 0 0 0 0 0 0 0 0 0 0 0 0 0 3 19 10 0 2 18 31 27 14 24 35 22 31 32 35
0 0 0 0 0 0 0 0 0 0 0 0 0 0 0 0 0 0 0 0 7 11 0 0 0 0 0 0 0 0 0 0 0 0 1 2 8 5 7 20 20 36 41 35 33 25 41 45 30
2 0 0 0 0 0 0 0 0 0 0 0 0 0 0 0 0 0 0 0 37 59 57 19 0 0 0 0 0 0 2 9 11 13 29 8 12 15 18 18 20 20 28 39 25 25 53 37 15
1 0 3 0 0 0 0 0 0 0 0 0 0 0 0 0 0 0 0 0 10 77 121 111 101 41 0 0 0 1 7 8 9 26 14 2 17 22 22 23 26 29 26 58 75 49 69 41 16
3 8 2 2 0 0 0 0 0 0 0 0 0 0 0 0 0 0 0 0 0 5 57 112 106 120 94 48 37 69 68 71 66 76 141 87 62 33 25 28 36 53 84 84 63 61 67 27 24
0 0 0 0 0 0 0 0 0 0 0 0 0 0 0 0 0 0 0 0 0 0 12 22 50 95 130 137 126 108 131 123 150 180 179 166 82 50 30 35 52 62 55 55 58 70 40 8 7
24 17 0 0 0 0 0 0 0 0 0 0 0 0 0 0 0 0 0 0 0 0 6 8 0 7 72 168 172 149 144 160 150 204 189 145 46 43 4 26 31 50 16 43 61 60 9 7 4
7 4 1 0 0 0 0 0 0 0 0 0 0 0 0 0 0 0 0 0 0 0 0 0 0 0 5 64 145 176 173 156 195 208 169 96 23 56 51 1 5 19 32 49 58 27 10 6 1
0 0 0 0 0 0 0 0 0 0 0 0 0 0 0 0 0 0 0 0 0 0 0 0 0 0 0 9 40 103 129 183 175 184 205 127 67 16 85 28 3 14 35 34 28 10 7 5 0
0 0 0 0 0 0 0 0 0 0 0 0 0 0 0 0 0 0 0 0 0 0 0 0 0 0 0 0 1 18 59 66 38 34 66 96 144 22 51 109 70 15 19 30 5 0 0 1 0
0 0 0 0 0 0 0 0 0 0 0 0 0 0 0 0 0 0 0 0 0 0 0 0 0 0 0 0 0 0 3 0 2 3 13 26 128 37 48 292 187 36 28 11 0 0 0 0 0
0 0 0 0 0 0 0 0 0 0 0 0 0 0 0 0 0 0 0 0 0 0 0 0 0 0 0 0 0 0 0 0 4 21 65 34 13 59 29 251 193 39 39 17 8 0 0 0 0

GFSSGP_con_mucape_123.txt.gz
CAPE
0 0 0 0 0 0 0 0 0 0 0 0 0 0 1 12 28 30 112 150 143 129 353 377 530 574 643 935 783 647 703 651 351 430 260 388 226 211 19 36 36 13 17 14 16 11 3 0 0
0 0 0 0 0 0 0 0 0 0 0 0 0 0 0 1 0 23 129 131 107 169 204 182 302 428 487 772 781 701 500 446 156 247 91 306 95 54 53 29 39 23 18 12 5 2 0 0 0
0 0 0 0 0 0 0 0 0 0 0 0 0 0 0 0 0 4 91 117 107 111 92 128 271 467 480 479 413 255 104 245 44 129 345 133 46 57 82 50 40 12 14 9 3 0 0 0 0
0 0 0 0 0 0 0 0 0 0 0 0 0 0 0 0 2 9 69 86 87 44 53 121 288 399 375 246 184 36 92 54 43 84 148 82 37 45 55 44 16 18 9 6 1 0 0 0 0
0 0 0 0 0 0 0 0 0 0 0 0 0 0 0 0 0 8 51 57 56 19 41 92 216 285 228 170 165 64 62 56 40 36 51 55 45 49 42 13 13 11 8 3 0 0 0 0 0
0 0 0 0 0 0 0 0 0 0 0 0 0 0 0 0 4 8 48 51 33 8 26 30 61 104 72 35 35 21 27 35 48 31 17 50 56 33 19 11 10 9 5 1 0 0 0 0 0
0 0 0 0 0 0 0 0 0 0 0 0 0 0 0 4 7 9 19 20 20 0 1 0 38 0 0 2 2 8 2 20 30 28 24 27 25 37 21 11 5 4 2 0 0 0 0 0 0
0 0 0 0 0 0 0 0 0 0 0 0 0 0 0 0 4 10 23 20 13 0 0 0 6 0 0 0 0 2 10 15 11 10 4 2 7 5 0 0 1 1 0 0 0 0 0 0 0
0 0 0 0 0 0 0 0 0 0 0 0 0 0 0 0 3 6 9 25 13 5 0 0 0 0 0 0 0 0 0 0 0 0 0 0 0 0 0 0 0 0 0 0 0 0 0 0 0
6 0 0 0 0 0 0 0 0 0 0 0 0 0 0 0 3 2 6 11 13 9 0 0 0 0 0 0 0 0 0 0 0 0 0 0 0 0 0 0 0 0 0 0 0 0 0 0 0
19 0 0 0 0 0 0 0 0 0 0 0 0 0 0 0 5 2 5 2 1 4 4 0 0 0 0 0 0 0 0 0 0 0 0 1 0 0 0 0 0 0 0 0 0 0 0 0 0
8 0 0 0 0 0 0 0 0 0 0 0 0 0 0 2 4 1 2 3 0 7 7 0 0 0 0 0 0 0 0 0 0 0 0 0 0 0 0 0 0 0 0 0 0 0 0 0 0
0 8 1 6 1 0 0 0 0 0 0 0 0 0 0 2 3 2 1 0 0 0 0 0 0 0 0 0 0 0 0 0 0 0 0 0 0 0 0 0 0 0 0 0 0 0 0 0 0
0 1 0 0 18 26 0 0 0 0 0 0 0 0 0 0 0 1 1 0 0 0 0 3 0 0 0 0 0 0 0 0 0 0 0 0 0 0 0 0 0 0 0 0 0 0 0 0 0
3 6 1 0 0 0 0 0 0 0 0 0 0 0 0 0 0 0 0 0 0 0 0 0 0 0 0 0 0 0 0 0 0 0 0 0 0 0 0 0 0 0 0 0 0 0 0 0 0
20 13 0 1 0 0 0 0 0 2 0 0 0 0 0 0 0 0 0 0 0 0 0 0 0 2 0 0 0 0 0 0 0 0 0 0 0 0 0 0 0 0 0 0 0 0 0 0 4
8 0 0 6 6 9 2 0 0 2 2 0 0 0 0 0 0 0 0 0 0 0 0 0 0 1 2 0 0 0 0 0 0 0 0 0 0 0 0 0 0 0 0 0 0 0 0 5 11
0 0 0 7 0 0 0 0 0 0 0 0 0 0 0 0 0 0 0 0 0 0 0 0 0 0 3 2 0 0 0 0 0 0 0 0 0 0 0 0 0 0 0 0 0 0 0 6 26
13 0 0 0 0 1 0 0 0 0 0 0 0 0 0 0 0 0 0 0 0 0 0 0 0 0 1 1 0 0 0 0 0 0 0 0 0 0 0 0 0 0 0 0 3 1 0 11 33
12 0 1 2 0 0 0 0 0 0 0 0 0 0 0 0 0 0 0 0 0 0 0 0 0 0 0 0 0 0 0 0 0 0 0 0 0 0 0 0 0 0 0 0 8 0 6 13 39
10 2 20 13 5 2 0 0 0 0 0 0 0 0 0 0 0 0 0 0 0 0 0 0 0 0 0 0 0 0 0 0 0 0 0 0 0 0 0 0 0 0 0 0 0 6 20 10 37
5 10 9 9 18 1 0 0 0 0 0 0 0 0 0 0 0 0 0 0 0 0 0 0 0 0 0 0 0 0 0 0 0 0 0 0 0 0 0 0 0 0 0 5 0 10 18 18 33
18 7 0 20 15 7 0 0 0 0 0 0 0 0 0 0 0 0 0 0 0 0 0 0 0 0 0 0 0 0 0 0 0 0 0 0 0 0 0 0 0 0 0 0 4 25 30 26 19
39 23 14 11 1 0 0 0 0 0 0 0 0 0 0 0 0 0 0 0 0 0 0 0 0 0 0 0 0 0 0 0 0 0 0 0 0 0 0 2 2 0 0 0 0 5 15 15 33
13 15 35 6 8 0 0 0 0 0 0 0 0 0 0 0 0 0 0 0 0 0 0 0 0 0 0 0 0 0 0 0 0 0 0 0 0 0 0 1 12 4 0 0 0 0 10 20 32
0 8 11 0 0 0 0 0 0 0 0 0 0 0 0 0 0 0 0 0 0 0 0 0 0 0 0 0 0 0 0 0 0 0 0 0 0 3 17 19 22 36 18 11 4 2 15 27 41
7 15 3 1 0 0 0 0 0 0 0 0 0 0 0 0 0 0 0 0 0 0 0 0 0 0 0 0 0 1 0 0 0 0 0 1 11 21 49 73 72 80 54 36 70 51 17 51 45
6 0 11 6 0 0 0 0 0 0 0 0 0 0 0 0 0 0 0 0 0 0 0 0 0 0 0 0 17 27 33 46 39 26 20 33 48 72 125 169 227 196 184 172 203 220 69 74 66
7 8 0 0 0 0 0 0 0 0 0 0 0 0 0 0 0 0 0 0 0 0 0 0 0 0 0 0 0 11 35 57 91 114 135 144 135 152 177 300 313 256 182 241 244 277 270 132 59
0 0 0 0 0 0 0 0 0 0 0 0 0 0 0 0 0 0 0 0 0 0 0 0 0 0 0 0 0 0 0 10 23 65 173 252 211 200 285 191 321 183 263 334 245 226 254 235 193